Wind_Speed
28 27 25 22 20 17 15 13 10 9 8 8 6 5 6 6 5 6 5 4 3 2 5 5 2 1 4 2 1 4 3 3 4 4 3 1 1 3 1 3 2 3 1 3 1 3 4 3 8 6 3 4 14 11
28 25 25 23 20 17 15 12 11 9 8 8 6 6 6 5 5 3 3 2 7 4 5 16 20 26 23 17 2 3 3 3 3 3 0 3 2 1 1 3 1 3 5 3 6 4 3 3 5 8 1 9 6 13
26 26 25 23 20 17 14 12 11 9 8 8 8 6 6 5 8 5 4 6 3 3 7 2 9 15 20 31 32 4 4 3 1 3 3 1 3 3 3 5 2 4 3 3 3 3 8 3 5 4 5 8 12 6
26 26 25 23 20 16 14 12 11 9 8 8 8 6 6 6 8 5 4 3 3 3 3 6 6 13 10 10 25 37 16 3 3 2 1 2 2 3 3 3 4 4 3 3 5 7 7 0 5 5 5 7 10 6
25 27 24 22 19 16 13 12 11 8 8 9 8 7 7 7 9 9 10 8 7 2 3 7 24 15 7 12 24 31 24 8 2 2 1 3 2 3 1 2 3 5 6 4 5 5 3 3 4 3 6 10 9 7
28 27 26 22 20 17 11 12 11 8 9 9 7 7 7 6 7 4 2 0 9 6 2 4 6 5 9 3 14 13 13 5 3 4 4 3 3 4 4 4 7 6 6 8 5 4 5 6 3 6 7 10 9 7
28 27 23 21 18 16 12 11 11 8 9 7 7 7 7 7 8 3 1 0 2 8 2 4 5 5 8 5 3 3 9 4 4 4 4 3 3 5 2 4 6 8 13 12 8 1 10 11 4 6 5 10 12 6
27 26 23 20 18 15 14 12 9 9 9 7 7 7 7 7 5 5 6 6 6 2 2 3 5 5 4 3 2 1 4 2 2 4 1 3 2 2 5 8 9 10 5 10 9 7 10 8 10 9 9 7 11 8
26 24 22 19 16 14 15 13 10 10 10 9 9 8 5 2 3 2 3 4 6 2 2 2 2 4 6 2 2 3 2 2 1 3 4 4 3 5 7 10 10 14 9 9 3 6 6 9 6 7 7 10 14 15
24 22 20 16 16 16 15 13 13 12 11 12 7 3 2 3 3 5 2 1 1 1 2 3 1 3 3 3 3 2 1 3 2 4 3 4 9 14 10 8 8 8 9 1 4 8 2 5 4 2 3 2 11 13
22 20 17 14 15 16 15 15 16 15 12 5 4 1 3 7 2 1 2 2 2 2 3 3 5 3 2 2 3 1 2 1 2 3 3 3 4 8 17 19 11 9 5 5 4 5 7 8 6 7 9 8 8 12
19 16 14 13 16 16 15 17 18 14 8 7 6 5 3 1 2 2 2 2 3 3 2 3 4 6 4 2 1 1 2 2 5 3 1 4 5 7 5 8 8 4 7 6 8 12 7 8 5 9 10 11 12 17
15 14 13 14 15 15 16 18 21 9 10 5 2 3 2 2 2 3 4 3 2 3 3 2 3 3 0 1 0 1 1 4 4 2 4 5 4 5 8 1 7 7 5 3 4 5 5 7 17 14 9 15 16 13
13 12 13 14 15 14 17 18 21 9 2 2 3 3 3 3 4 4 4 3 4 2 3 2 3 1 0 1 2 2 3 2 3 3 5 4 6 6 7 6 4 9 8 6 6 7 7 8 12 17 14 15 16 12
11 11 12 11 13 14 15 15 20 8 2 2 2 3 5 4 3 3 4 2 2 2 1 3 2 1 2 3 3 2 1 4 4 4 3 4 10 5 6 7 2 7 9 7 6 7 9 11 10 12 17 21 21 22
11 10 9 11 12 14 15 16 13 5 2 2 2 2 3 2 3 2 1 2 2 1 1 1 2 2 4 2 2 5 3 5 4 3 3 4 8 7 5 5 4 6 8 9 7 8 14 12 11 11 17 18 20 23
9 3 10 14 15 16 19 10 8 3 2 2 3 2 3 2 3 3 2 2 2 1 1 1 3 6 2 3 3 3 3 3 6 5 4 4 6 8 4 6 4 5 8 11 12 14 15 20 21 18 9 13 16 18
1 7 16 17 20 18 3 2 2 2 3 3 2 2 3 3 2 2 3 2 2 2 2 3 1 2 3 3 1 2 3 6 6 3 4 6 6 3 4 6 5 12 12 13 17 15 16 17 13 10 18 20 21 20
5 16 17 22 14 3 3 2 2 2 4 2 3 3 3 3 3 2 3 4 3 1 2 2 3 3 3 2 3 4 4 3 5 5 4 5 8 4 9 4 8 13 16 15 15 11 13 15 18 19 20 20 18 19
13 14 16 20 2 2 2 1 2 2 3 3 3 3 3 2 2 2 2 3 3 2 4 3 3 3 3 3 3 3 6 6 6 4 5 3 5 10 9 7 9 14 16 17 17 17 15 14 15 17 17 17 18 16
11 9 14 9 2 1 1 2 2 3 3 3 2 2 2 1 1 2 2 3 2 2 3 4 4 4 3 5 6 9 5 5 5 2 3 1 5 13 8 3 14 14 12 11 9 10 16 15 22 19 18 18 15 15
7 8 4 7 2 1 2 3 2 3 2 3 3 1 1 0 1 2 1 3 3 3 3 2 3 3 5 6 4 10 12 12 14 6 2 5 4 3 3 4 8 4 11 14 17 14 16 16 17 17 16 15 13 13
8 3 3 2 2 1 4 1 1 2 2 2 1 1 1 1 2 1 2 2 3 3 4 4 5 3 4 10 10 12 10 14 3 3 3 3 4 4 9 11 10 11 5 10 13 16 15 18 20 19 18 15 14 15
4 3 2 1 2 3 2 2 2 2 2 2 2 2 2 2 2 1 2 2 3 3 3 3 2 1 1 4 3 5 10 6 5 3 7 7 3 5 7 6 4 9 9 7 15 13 11 11 17 19 19 19 20 21
2 3 3 2 2 2 2 2 2 1 2 1 3 1 1 1 2 2 3 3 3 2 3 3 2 2 2 3 2 3 9 2 1 2 2 5 6 3 2 1 2 2 9 12 12 11 9 12 17 18 19 20 21 22
1 3 6 5 1 2 2 1 2 2 2 2 1 2 1 0 1 3 3 3 3 3 2 3 2 1 1 3 2 1 0 1 3 3 2 7 7 7 3 3 3 4 9 9 11 9 5 12 16 19 18 18 18 20
2 3 4 3 2 1 2 2 1 0 2 2 2 2 1 2 3 3 2 3 3 4 4 2 5 3 1 2 1 3 6 6 5 1 7 9 4 11 10 6 4 6 9 11 9 11 14 13 17 18 19 18 18 17
3 2 2 2 1 2 1 1 1 1 2 2 2 3 2 3 1 3 2 14 11 9 15 12 10 9 7 6 8 10 12 12 7 9 11 16 20 14 10 13 12 8 6 7 7 6 8 14 19 19 20 18 17 18
2 2 1 3 2 1 1 1 1 2 1 1 2 3 4 3 2 3 9 17 16 19 14 13 20 23 22 20 14 10 12 12 8 7 7 3 4 9 6 7 5 2 3 6 5 4 3 2 3 7 11 13 16 21
2 0 1 2 1 2 2 3 1 1 3 3 3 2 2 1 6 15 16 20 16 12 14 12 17 15 9 12 12 14 14 15 14 9 3 0 2 8 5 2 1 2 3 4 7 6 4 7 9 10 8 9 9 7
1 1 1 1 2 2 1 1 2 1 3 2 2 2 1 2 5 19 25 17 16 16 17 15 15 14 15 14 10 6 5 7 8 7 6 3 4 1 3 1 5 4 7 9 7 5 7 8 12 12 11 9 10 11
1 2 1 1 1 1 3 2 3 4 3 5 3 1 2 3 4 5 16 20 22 16 17 19 17 14 13 10 9 9 6 4 3 4 4 5 4 3 2 2 5 4 6 9 8 6 7 10 14 13 14 15 13 19
1 2 2 2 1 1 1 2 2 3 3 2 3 4 3 2 3 2 8 12 14 14 13 15 13 9 10 10 10 8 6 7 7 5 4 3 5 5 4 3 3 4 5 7 6 5 7 8 8 9 12 13 18 22
Wind_Direction
246 247 243 240 235 236 239 247 248 255 260 258 255 259 262 270 238 224 268 308 231 260 270 229 244 270 333 254 261 292 359 339 2 84 142 191 195 226 246 254 195 186 137 237 246 144 270 2 345 181 317 172 138 115
244 242 239 235 228 229 236 237 241 244 248 246 242 254 252 247 222 209 257 237 313 223 250 293 277 252 244 240 59 309 249 234 201 79 93 120 188 213 183 278 90 266 188 229 191 243 249 168 224 284 358 266 199 132
239 237 232 228 220 223 227 231 234 236 239 240 229 240 236 239 226 222 255 294 299 278 285 298 244 266 241 232 226 193 267 235 151 189 164 149 204 145 174 241 264 237 168 212 359 270 254 86 292 270 318 303 304 155
234 230 223 218 214 216 219 224 222 220 237 240 228 232 229 221 222 230 246 238 283 274 280 280 309 281 261 266 209 213 232 339 58 48 118 145 193 168 207 231 197 216 133 252 266 289 280 161 224 245 265 297 288 241
233 221 217 209 205 206 209 212 213 214 227 236 225 223 223 214 214 235 252 259 242 250 288 289 300 288 305 247 209 212 221 234 59 325 157 234 166 127 233 332 256 185 199 165 229 241 266 291 285 259 242 229 250 260
221 212 204 199 198 194 198 208 205 211 221 222 220 213 212 211 199 219 264 326 227 217 280 291 299 290 311 228 203 197 204 192 174 171 226 239 220 149 175 214 262 224 225 182 225 113 241 249 355 272 273 286 260 273
206 199 197 189 187 185 192 195 200 212 211 201 205 202 204 201 197 214 253 269 226 191 258 288 298 277 295 233 181 163 166 187 161 194 213 223 215 137 200 233 256 233 239 250 216 90 284 228 214 220 201 243 234 214
198 188 186 184 184 184 187 189 195 196 186 180 182 181 182 195 218 268 268 232 186 229 246 283 278 322 348 319 283 129 129 122 213 209 119 178 4 163 246 237 250 258 247 276 266 198 240 281 298 319 337 235 201 141
181 177 176 178 177 178 178 178 180 174 165 164 158 154 140 176 198 229 190 178 195 254 293 270 280 280 349 304 270 346 98 150 269 203 207 130 223 229 229 220 230 233 209 224 110 218 264 264 296 342 8 105 112 111
169 169 168 174 174 173 174 171 168 164 158 156 150 168 188 211 181 143 140 205 201 201 241 253 221 273 3 339 304 354 118 211 189 240 108 181 236 240 256 246 250 254 243 149 314 273 230 274 267 219 63 56 128 133
164 164 167 171 173 173 173 168 162 152 149 176 184 157 136 145 150 209 189 217 161 237 211 238 206 237 282 205 278 74 317 278 235 263 185 228 261 233 224 233 238 238 209 219 231 279 232 223 205 137 111 123 150 127
159 162 167 174 176 174 171 169 163 159 176 172 135 123 136 182 202 230 195 163 218 233 233 217 226 200 260 193 226 335 256 28 241 317 205 260 241 237 260 240 245 153 149 191 213 229 238 226 167 128 126 135 152 141
156 165 173 171 170 173 173 174 175 164 151 140 150 149 168 141 170 216 193 209 216 202 246 282 306 226 213 90 306 37 270 243 330 239 232 237 273 338 322 238 102 141 145 244 242 115 143 130 138 137 132 134 138 143
156 159 160 165 170 174 175 178 179 171 202 208 165 155 209 185 240 200 209 197 228 233 294 276 270 270 196 164 163 182 252 329 297 277 245 295 313 321 341 316 175 153 131 124 100 97 101 115 112 130 149 157 140 136
150 153 157 164 167 170 172 176 180 189 270 222 206 201 213 231 244 228 230 260 308 292 326 342 317 42 288 298 192 84 286 260 235 245 253 306 313 326 329 331 286 131 123 121 103 99 91 87 96 98 111 133 129 129
145 145 170 167 164 163 162 158 171 214 244 235 240 247 257 222 284 351 217 176 192 238 70 66 292 318 258 239 193 203 196 227 257 240 254 323 324 327 320 342 356 123 110 108 100 110 100 100 94 93 108 118 128 136
160 142 165 163 154 151 149 143 180 216 247 241 252 233 251 242 239 266 219 222 161 90 227 245 237 228 303 261 226 185 228 299 300 311 329 319 297 301 253 113 109 112 110 94 98 88 92 106 110 98 84 102 129 139
62 155 157 152 150 148 136 157 177 170 246 234 226 233 215 235 239 202 206 172 150 210 168 233 307 247 236 270 330 254 281 306 278 289 281 284 291 308 81 73 124 127 117 115 109 112 117 109 102 105 122 131 125 127
141 153 155 155 150 143 136 170 188 247 241 244 252 235 220 241 229 217 169 162 185 227 308 256 238 223 238 223 262 292 279 332 307 323 286 272 261 159 102 161 129 122 114 117 121 114 122 128 131 133 133 135 130 138
138 151 160 169 176 188 113 138 191 242 259 239 232 235 217 205 141 155 172 189 166 205 212 218 228 226 216 239 217 274 317 322 307 308 305 320 43 107 105 172 137 129 118 118 125 135 134 133 150 152 151 153 151 159
122 155 176 191 311 295 259 155 210 223 255 252 261 210 254 137 191 193 230 167 192 230 240 221 231 246 256 260 290 300 283 276 285 270 277 238 57 84 74 90 127 128 132 139 138 150 155 165 171 172 171 174 172 169
114 117 117 206 293 261 264 228 242 289 275 266 287 215 238 232 249 230 146 198 232 233 218 240 238 238 274 280 250 270 254 264 278 280 335 122 67 90 156 181 155 138 149 156 157 165 175 175 176 175 176 176 172 171
115 133 127 150 285 30 267 157 262 222 270 261 269 270 13 286 247 182 247 233 258 244 231 234 250 231 251 274 283 285 253 245 223 196 210 133 157 206 205 190 168 157 151 179 196 200 194 192 191 192 197 199 202 206
122 168 161 213 176 266 337 263 250 261 255 259 270 12 345 303 310 287 275 258 242 244 220 216 206 213 249 283 285 284 293 190 162 245 210 184 191 216 210 160 155 203 214 197 170 182 200 198 195 201 207 217 220 220
70 289 133 281 259 264 264 301 265 290 281 324 334 32 299 295 306 322 344 306 278 252 209 190 222 200 239 284 241 259 228 296 91 111 195 205 181 204 239 205 226 155 180 162 170 183 182 182 190 193 196 202 205 210
198 231 179 196 226 198 241 279 254 296 304 308 287 283 70 161 324 359 346 303 303 309 285 213 206 144 299 223 296 356 306 114 81 90 170 196 180 155 164 160 168 178 175 182 199 222 194 202 206 210 212 219 230 227
306 240 219 214 197 195 270 264 307 36 309 332 314 303 80 28 27 278 250 255 266 273 331 85 132 136 156 247 356 53 69 69 71 146 60 66 138 175 151 166 194 202 174 191 209 238 254 253 240 225 224 225 230 232
284 332 28 306 262 221 278 245 295 295 292 275 322 342 32 31 349 301 311 332 350 48 91 83 60 41 76 72 55 66 49 38 70 98 70 61 65 88 110 104 108 129 179 229 256 286 286 267 253 257 261 248 253 251
298 294 14 343 322 319 221 195 227 264 270 301 40 34 2 346 307 312 324 351 38 55 47 57 54 75 73 66 60 59 59 68 71 80 73 47 27 44 84 97 77 85 220 211 212 227 242 265 289 287 290 283 279 283
282 351 34 304 313 292 298 168 295 313 44 74 103 169 249 249 7 31 31 32 30 30 35 55 70 61 40 63 49 46 55 59 72 85 98 351 260 114 116 153 339 334 334 295 240 234 267 294 311 323 303 295 295 282
302 24 312 244 283 343 331 286 304 42 123 95 237 258 307 335 23 30 30 41 55 58 52 44 49 47 46 39 36 45 8 34 15 39 43 143 183 215 274 313 88 46 30 46 34 11 340 321 308 296 284 279 290 291
210 231 249 313 32 326 47 359 329 9 42 12 359 345 30 47 40 340 13 28 43 39 46 51 49 38 36 28 31 21 345 329 336 15 51 90 102 86 48 329 298 305 326 323 312 307 333 332 324 317 277 273 284 290
209 211 254 277 91 90 13 106 346 102 63 32 359 9 33 68 74 293 26 42 45 44 39 36 28 17 12 12 21 22 24 35 39 20 10 2 347 348 350 340 20 27 11 348 346 342 323 312 313 321 328 306 307 311
Height
771 773 776 778 781 783 785 786 788 789 790 790 791 791 791 791 792 792 792 792 792 788 780 776 775 776 777 776 777 765 760 757 757 767 770 773 776 774 773 765 763 768 770 769 768 759 754 722 719 726 721 713 705 711
763 766 770 773 776 778 780 782 784 786 787 788 789 789 790 790 789 790 791 790 790 789 778 771 770 769 769 771 775 770 765 761 758 768 769 772 775 777 778 773 762 768 761 766 759 744 720 717 724 719 713 713 696 696
755 759 763 767 771 773 776 778 781 783 784 785 787 787 787 788 788 789 789 789 787 785 772 768 758 754 755 758 763 773 760 752 753 754 763 766 770 772 777 773 762 754 752 759 751 725 723 706 713 709 706 707 698 681
749 754 758 762 765 769 771 775 777 780 781 783 784 785 786 787 787 787 787 787 787 786 780 763 750 748 748 748 751 752 749 750 753 756 760 763 766 761 769 763 763 750 749 747 745 724 714 706 712 708 705 707 704 696
743 748 752 757 762 765 768 771 775 777 778 780 782 783 784 785 786 786 785 785 785 788 779 765 750 737 738 739 741 744 749 754 759 761 762 760 756 758 760 760 756 741 739 744 740 720 719 713 709 707 708 706 706 705
739 743 749 753 758 762 764 769 773 774 776 777 779 781 782 783 784 785 783 783 782 783 782 768 752 739 735 733 736 738 741 750 754 758 755 747 741 748 758 757 729 724 722 718 720 715 716 714 712 714 714 710 704 706
735 740 747 751 756 759 763 767 770 772 774 776 778 779 781 782 782 783 783 782 781 782 781 771 761 740 729 727 729 732 735 741 745 750 751 744 742 744 751 749 719 716 711 705 707 714 714 707 714 711 705 703 700 701
732 738 744 749 753 756 761 764 767 770 772 775 776 778 780 781 782 782 780 780 780 781 780 774 764 752 732 732 731 727 734 738 739 739 741 741 741 740 743 723 713 707 706 704 699 704 706 709 706 703 697 696 700 704
731 737 743 747 751 755 758 762 766 769 771 774 776 778 780 780 780 779 779 779 780 783 778 772 769 760 738 736 733 729 729 739 733 736 737 736 740 739 716 708 703 699 702 696 702 704 704 706 704 700 702 697 701 703
732 737 742 746 750 753 758 761 765 768 771 774 777 777 777 777 777 779 780 780 779 778 778 771 769 763 752 744 736 734 731 736 741 731 727 732 720 703 701 698 696 694 694 697 702 703 702 699 697 700 704 708 705 705
734 738 742 746 750 754 757 761 764 768 772 774 774 774 776 776 778 778 776 776 775 774 772 765 765 763 749 749 740 736 735 732 736 733 730 729 726 702 684 685 687 686 691 695 696 695 694 693 696 697 703 710 713 708
734 738 742 745 750 754 757 760 764 768 770 771 772 774 776 777 776 775 772 775 772 766 761 759 751 755 748 744 743 736 739 737 736 729 729 722 702 688 685 684 681 685 687 690 690 689 689 690 693 698 701 708 710 710
734 738 743 746 750 753 757 760 764 768 769 771 772 773 773 775 774 769 766 766 762 760 752 748 748 743 742 743 744 742 738 739 731 729 721 709 693 692 692 686 687 684 687 691 690 692 692 688 693 700 707 710 713 718
737 741 744 748 751 754 757 761 765 768 768 768 767 775 769 769 769 762 761 757 752 750 749 748 746 742 740 742 745 742 740 739 736 730 714 707 699 697 695 690 689 686 686 691 692 693 696 698 701 707 709 711 715 719
740 743 746 749 751 754 757 761 765 768 767 765 764 764 763 759 755 753 751 753 750 749 750 749 748 747 740 741 738 742 740 740 730 720 713 706 699 698 696 692 687 684 684 691 693 697 701 704 708 711 714 716 718 722
742 744 746 749 752 755 758 762 766 769 765 762 762 759 754 756 752 750 748 748 748 749 750 751 749 749 743 738 733 732 736 731 720 715 708 706 703 697 695 693 693 687 689 690 695 697 701 706 707 711 714 717 719 722
743 744 746 749 752 756 759 763 765 765 763 761 758 757 754 753 752 750 748 747 746 747 749 748 746 742 740 738 732 730 729 726 721 716 712 707 705 699 693 695 696 696 694 694 701 703 706 710 714 717 720 724 728 731
743 744 747 750 753 757 759 760 761 761 760 756 758 752 751 749 746 747 745 745 747 747 747 747 745 742 739 730 729 728 725 718 716 715 713 707 704 698 694 697 700 700 703 706 707 711 714 717 721 725 729 733 735 737
743 746 749 752 755 756 758 761 761 759 757 754 751 749 748 744 741 740 740 741 743 744 744 743 740 741 734 728 725 721 721 717 717 714 710 704 701 697 697 703 705 704 704 708 712 715 718 721 724 727 731 735 738 741
747 749 752 755 756 756 758 760 760 758 756 750 747 743 739 738 738 739 740 740 740 742 740 738 731 727 726 720 718 718 713 714 716 713 710 705 700 699 701 706 706 707 709 713 717 721 725 728 730 731 734 736 739 742
751 753 756 757 757 756 757 756 758 756 751 747 740 738 736 737 737 737 737 738 739 735 732 728 725 719 718 717 718 715 715 715 713 714 713 709 704 700 707 712 710 711 713 719 722 726 728 729 732 734 736 739 741 742
753 756 758 760 759 757 756 753 753 749 749 741 737 734 735 736 735 735 734 733 732 725 722 718 716 716 715 713 713 711 711 710 709 710 709 706 707 709 711 714 717 717 718 719 720 723 726 729 732 735 738 740 742 744
755 757 758 759 758 758 757 752 751 746 743 736 735 733 735 734 733 733 730 727 723 717 714 713 711 712 713 710 709 708 708 706 707 707 710 710 710 711 712 714 714 716 720 722 723 724 726 729 732 734 736 739 741 744
756 757 758 757 758 758 754 751 747 743 739 736 733 733 734 733 732 729 725 722 717 714 712 711 712 712 711 710 708 704 702 704 704 704 706 708 710 710 711 711 713 716 718 720 722 725 726 726 728 732 735 737 739 741
762 762 760 762 756 753 750 749 744 742 738 736 735 734 736 734 732 726 725 721 714 710 708 710 711 711 712 710 709 707 703 703 704 704 705 707 708 709 710 710 712 714 717 719 721 722 723 725 728 730 732 734 735 738
762 756 757 754 754 752 746 745 743 739 738 736 734 733 735 735 732 729 727 722 718 713 709 709 709 710 711 711 710 707 706 706 707 707 707 707 706 707 709 712 713 714 714 717 719 719 722 723 724 726 728 729 731 733
758 749 750 749 748 746 745 742 742 742 738 736 735 732 732 733 735 731 724 719 716 711 710 709 710 710 709 709 708 708 709 709 706 705 707 706 705 705 707 709 711 711 714 716 716 717 719 721 722 723 724 725 727 729
749 748 746 747 746 743 741 743 741 739 739 738 735 733 732 732 738 730 725 719 714 711 710 711 711 710 710 710 710 709 708 707 707 707 707 707 708 709 711 712 713 715 717 717 717 716 715 715 716 719 721 720 721 722
752 750 748 747 743 742 741 742 743 740 737 736 737 741 740 738 736 732 727 722 717 713 714 713 713 712 713 713 712 712 711 710 710 713 715 715 712 713 714 714 715 716 717 717 716 716 716 716 716 717 716 716 715 715
750 750 749 747 745 742 740 741 738 737 737 739 741 741 740 738 737 734 729 724 722 722 722 720 718 718 718 715 717 716 716 715 714 716 719 719 717 715 716 717 718 717 716 715 715 715 714 715 715 715 714 714 714 713
750 750 749 747 744 742 739 737 737 737 738 742 741 742 739 738 736 735 734 732 730 727 725 725 725 724 722 721 720 720 721 720 720 718 718 718 720 721 720 718 716 717 717 715 714 714 714 714 714 713 714 714 714 714
750 748 748 745 744 742 740 741 739 739 741 743 742 740 740 741 745 743 741 738 734 733 734 733 731 730 729 728 726 725 723 722 721 721 721 721 721 719 718 718 718 717 716 716 715 713 713 715 714 711 710 710 710 709
748 746 744 743 742 741 743 742 744 745 748 749 748 747 746 747 749 747 745 744 743 741 739 738 737 735 735 733 732 730 728 727 726 725 724 723 723 722 720 719 718 716 716 715 715 714 714 714 712 710 709 707 706 705